Data No, UTC Date,UTC Time,Latitude,Longitude,Course(deg),Temp(degC),Sal(psu)
1061,2020/4/2,17:40,35-35.81N,139-47.20E,202,13.735,30.684
1062,2020/4/2,17:41,35-35.67N,139-47.15E,190,13.748,30.8882
1063,2020/4/2,17:42,35-35.49N,139-47.15E,173,13.751,30.9795
1064,2020/4/2,17:43,35-35.29N,139-47.27E,148,13.743,31.0716
1065,2020/4/2,17:44,35-35.14N,139-47.42E,139,13.814,31.0963
1066,2020/4/2,17:45,35-34.97N,139-47.59E,139,13.808,31.1595
1067,2020/4/2,17:46,35-34.79N,139-47.78E,139,13.82,31.3137
1068,2020/4/2,17:47,35-34.61N,139-47.98E,140,13.79,31.4082
1069,2020/4/2,17:48,35-34.43N,139-48.21E,128,13.736,31.4654
1070,2020/4/2,17:49,35-34.27N,139-48.46E,127,13.72,31.323
1071,2020/4/2,17:50,35-34.09N,139-48.74E,127,13.655,31.1744
1072,2020/4/2,17:51,35-33.92N,139-49.01E,127,13.647,31.1106
1073,2020/4/2,17:52,35-33.75N,139-49.30E,125,13.697,31.0671
1074,2020/4/2,17:53,35-33.57N,139-49.60E,125,13.756,31.1041
1075,2020/4/2,17:54,35-33.39N,139-49.91E,125,13.822,31.1431
1076,2020/4/2,17:55,35-33.20N,139-50.23E,127,13.818,31.0458
1077,2020/4/2,17:56,35-33.02N,139-50.51E,130,13.724,30.884
1078,2020/4/2,17:57,35-32.76N,139-50.73E,149,13.593,30.7796
1079,2020/4/2,17:58,35-32.47N,139-50.86E,165,13.404,30.7546
1080,2020/4/2,17:59,35-32.17N,139-50.93E,169,13.32,30.8607
1081,2020/4/2,18:00,35-31.86N,139-51.00E,170,13.265,31.0999
1082,2020/4/2,18:01,35-31.54N,139-51.06E,170,13.228,31.2467
1083,2020/4/2,18:02,35-31.21N,139-51.12E,172,13.195,31.3137
1084,2020/4/2,18:03,35-30.88N,139-51.13E,182,13.181,31.3342
1085,2020/4/2,18:04,35-30.58N,139-51.07E,190,---,31.3431
1086,2020/4/2,18:05,35-30.28N,139-50.96E,198,13.19,31.3482
1087,2020/4/2,18:06,35-29.98N,139-50.80E,204,13.188,31.3523
1088,2020/4/2,18:07,35-29.68N,139-50.63E,206,13.195,31.3471
1089,2020/4/2,18:08,35-29.39N,139-50.43E,208,13.199,31.3377
1090,2020/4/2,18:09,35-29.12N,139-50.24E,214,13.186,31.3417
1091,2020/4/2,18:10,35-28.86N,139-49.92E,229,13.179,31.3556
1092,2020/4/2,18:11,35-28.66N,139-49.61E,231,13.236,31.3831
1093,2020/4/2,18:12,35-28.44N,139-49.27E,232,13.365,31.4579
1094,2020/4/2,18:13,35-28.24N,139-48.96E,232,13.429,31.4862
1095,2020/4/2,18:14,35-28.05N,139-48.64E,233,13.436,31.383
1096,2020/4/2,18:15,35-27.89N,139-48.37E,233,13.429,31.2617
1097,2020/4/2,18:16,35-27.68N,139-48.02E,233,13.425,31.1488
1098,2020/4/2,18:17,35-27.48N,139-47.70E,232,13.383,31.057
1099,2020/4/2,18:18,35-27.28N,139-47.37E,233,13.382,30.9602
1100,2020/4/2,18:19,35-27.07N,139-47.03E,233,13.472,30.9536
1101,2020/4/2,18:20,35-26.89N,139-46.75E,232,13.444,31.1163
1102,2020/4/2,18:21,35-26.68N,139-46.41E,232,13.449,31.156
1103,2020/4/2,18:22,35-26.48N,139-46.10E,232,13.525,31.1465
1104,2020/4/2,18:23,35-26.24N,139-45.72E,232,13.542,31.2305
1105,2020/4/2,18:24,35-26.04N,139-45.41E,232,13.536,31.2981
1106,2020/4/2,18:25,35-25.83N,139-45.09E,232,13.488,31.3417
1107,2020/4/2,18:26,35-25.64N,139-44.79E,232,---,31.3461
1108,2020/4/2,18:27,35-25.44N,139-44.46E,232,13.488,31.2921
1109,2020/4/2,18:28,35-25.24N,139-44.15E,231,13.464,31.3505
1110,2020/4/2,18:29,35-25.03N,139-43.85E,230,13.443,31.3932
1111,2020/4/2,18:30,35-24.83N,139-43.55E,229,13.442,31.3984
1112,2020/4/2,18:31,35-24.61N,139-43.25E,226,13.417,31.3918
1113,2020/4/2,18:32,35-24.39N,139-42.99E,222,13.355,31.4182
1114,2020/4/2,18:33,35-24.15N,139-42.78E,214,13.377,31.462
1115,2020/4/2,18:34,35-23.87N,139-42.58E,209,13.394,31.3625
1116,2020/4/2,18:35,35-23.59N,139-42.37E,210,13.446,31.2644
1117,2020/4/2,18:36,35-23.29N,139-42.21E,205,13.489,31.2145
1118,2020/4/2,18:37,35-23.02N,139-42.07E,200,13.49,31.134
1119,2020/4/2,18:38,35-22.71N,139-41.97E,193,13.509,31.0896
1120,2020/4/2,18:39,35-22.38N,139-41.92E,185,13.511,31.0634
1121,2020/4/2,18:40,35-22.08N,139-41.91E,180,13.509,31.0611
1122,2020/4/2,18:41,35-21.77N,139-41.94E,172,13.487,31.0648
1123,2020/4/2,18:42,35-21.45N,139-42.00E,169,13.47,31.061
1124,2020/4/2,18:43,35-21.10N,139-42.08E,170,13.437,31.0542
1125,2020/4/2,18:44,35-20.83N,139-42.14E,170,13.391,31.0485
1126,2020/4/2,18:45,35-20.56N,139-42.20E,168,13.329,31.0848
1127,2020/4/2,18:46,35-20.27N,139-42.27E,168,13.357,31.2062
1128,2020/4/2,18:47,35-20.04N,139-42.33E,168,13.361,31.5179
1129,2020/4/2,18:48,35-19.81N,139-42.38E,169,13.365,31.6649
1130,2020/4/2,18:49,35-19.61N,139-42.49E,151,13.37,31.7565
1131,2020/4/2,18:50,35-19.43N,139-42.64E,147,13.428,31.7955
1132,2020/4/2,18:51,35-19.24N,139-42.81E,144,13.413,31.8407
1133,2020/4/2,18:52,35-19.08N,139-42.95E,144,13.459,31.8678
1134,2020/4/2,18:53,35-18.89N,139-43.11E,145,13.487,31.9538
1135,2020/4/2,18:54,35-18.71N,139-43.26E,144,13.436,32.0485
1136,2020/4/2,18:55,35-18.53N,139-43.42E,144,13.4,32.0568
1137,2020/4/2,18:56,35-18.36N,139-43.58E,143,13.423,32.0443
1138,2020/4/2,18:57,35-18.17N,139-43.75E,144,13.593,32.02
1139,2020/4/2,18:58,35-18.00N,139-43.90E,142,13.768,32.117
1140,2020/4/2,18:59,35-17.83N,139-44.07E,141,13.873,32.2916
1141,2020/4/2,19:00,35-17.65N,139-44.24E,142,13.917,32.4375
1142,2020/4/2,19:01,35-17.47N,139-44.40E,142,13.949,32.5032
1143,2020/4/2,19:02,35-17.30N,139-44.56E,143,13.988,32.5521
1144,2020/4/2,19:03,35-17.12N,139-44.72E,143,13.984,32.5561
1145,2020/4/2,19:04,35-16.95N,139-44.88E,142,13.92,32.5768
1146,2020/4/2,19:05,35-16.78N,139-45.04E,142,13.744,32.5709
1147,2020/4/2,19:06,35-16.60N,139-45.21E,142,13.615,32.4278
1148,2020/4/2,19:07,35-16.43N,139-45.38E,141,13.567,32.1359
1149,2020/4/2,19:08,35-16.25N,139-45.54E,145,13.497,31.9236
1150,2020/4/2,19:09,35-16.07N,139-45.69E,146,13.507,31.8205
1151,2020/4/2,19:10,35-15.89N,139-45.83E,146,13.529,31.6295
1152,2020/4/2,19:11,35-15.70N,139-45.99E,147,13.554,31.617
1153,2020/4/2,19:12,35-15.52N,139-46.13E,147,13.596,31.6488
1154,2020/4/2,19:13,35-15.33N,139-46.27E,152,13.539,31.7077
1155,2020/4/2,19:14,35-15.13N,139-46.33E,169,13.364,31.7446
1156,2020/4/2,19:15,35-14.90N,139-46.34E,178,13.421,31.409
1157,2020/4/2,19:16,35-14.70N,139-46.33E,181,13.525,31.2532
1158,2020/4/2,19:17,35-14.48N,139-46.32E,182,13.634,31.3881
1159,2020/4/2,19:18,35-14.27N,139-46.31E,182,13.615,31.5609
1160,2020/4/2,19:19,35-14.06N,139-46.30E,183,13.589,31.665
1161,2020/4/2,19:20,35-13.85N,139-46.29E,183,13.583,31.6125
1162,2020/4/2,19:21,35-13.63N,139-46.27E,183,13.586,31.6026
1163,2020/4/2,19:22,35-13.40N,139-46.26E,182,13.594,31.6531
1164,2020/4/2,19:23,35-13.21N,139-46.24E,185,13.575,31.6913
1165,2020/4/2,19:24,35-12.99N,139-46.22E,185,13.62,31.7307
1166,2020/4/2,19:25,35-12.77N,139-46.18E,189,13.629,31.7938
1167,2020/4/2,19:26,35-12.55N,139-46.13E,194,13.625,31.944
1168,2020/4/2,19:27,35-12.32N,139-46.05E,194,13.687,31.9925
1169,2020/4/2,19:28,35-12.05N,139-45.97E,194,---,32.1122
1170,2020/4/2,19:29,35-11.75N,139-45.88E,192,14.108,32.5013
1171,2020/4/2,19:30,35-11.46N,139-45.80E,195,14.174,32.722
1172,2020/4/2,19:31,35-11.16N,139-45.67E,198,14.242,32.8647
1173,2020/4/2,19:32,35-10.85N,139-45.54E,199,14.269,32.9255
1174,2020/4/2,19:33,35-10.55N,139-45.40E,200,14.318,33.0064
1175,2020/4/2,19:34,35-10.24N,139-45.27E,200,14.348,33.0586
1176,2020/4/2,19:35,35-09.92N,139-45.12E,200,14.377,33.1184
1177,2020/4/2,19:36,35-09.61N,139-44.98E,201,14.442,33.1587
1178,2020/4/2,19:37,35-09.28N,139-44.82E,201,14.489,33.2395
1179,2020/4/2,19:38,35-08.96N,139-44.68E,200,14.585,33.3212
1180,2020/4/2,19:39,35-08.63N,139-44.54E,200,14.754,33.4049
1181,2020/4/2,19:40,35-08.30N,139-44.40E,200,14.848,33.5609
1182,2020/4/2,19:41,35-07.97N,139-44.25E,199,14.951,33.6776
1183,2020/4/2,19:42,35-07.63N,139-44.10E,200,15.059,33.8024
1184,2020/4/2,19:43,35-07.31N,139-43.96E,200,15.033,33.9212
1185,2020/4/2,19:44,35-06.96N,139-43.80E,202,15.026,33.9817
1186,2020/4/2,19:45,35-06.64N,139-43.62E,204,15.297,33.9428
1187,2020/4/2,19:46,35-06.33N,139-43.45E,205,15.369,33.9991
1188,2020/4/2,19:47,35-06.00N,139-43.27E,204,15.437,34.0862
1189,2020/4/2,19:48,35-05.62N,139-43.06E,204,15.505,34.1476
1190,2020/4/2,19:49,35-05.31N,139-42.89E,204,15.643,34.1831
1191,2020/4/2,19:50,35-05.00N,139-42.72E,204,15.91,34.2395
1192,2020/4/2,19:51,35-04.65N,139-42.53E,204,16.079,34.3217
1193,2020/4/2,19:52,35-04.31N,139-42.35E,204,16.207,34.3939
1194,2020/4/2,19:53,35-03.96N,139-42.15E,206,16.324,34.4293
1195,2020/4/2,19:54,35-03.63N,139-41.94E,207,16.414,34.4515
1196,2020/4/2,19:55,35-03.29N,139-41.72E,207,16.518,34.4619
1197,2020/4/2,19:56,35-02.94N,139-41.50E,207,16.583,34.4768
1198,2020/4/2,19:57,35-02.60N,139-41.28E,208,16.599,34.4835
1199,2020/4/2,19:58,35-02.24N,139-41.04E,208,16.655,34.4814
1200,2020/4/2,19:59,35-01.90N,139-40.92E,189,16.703,34.4844
1201,2020/4/2,20:00,35-01.53N,139-40.94E,174,16.747,34.4877
1202,2020/4/2,20:01,35-01.14N,139-41.04E,168,16.793,34.4866
1203,2020/4/2,20:02,35-00.83N,139-41.14E,164,16.805,34.4868
1204,2020/4/2,20:03,35-00.46N,139-41.28E,162,16.828,34.4868
1205,2020/4/2,20:04,35-00.07N,139-41.43E,161,---,34.4934
1206,2020/4/2,20:05,34-59.72N,139-41.57E,162,16.886,34.4944
1207,2020/4/2,20:06,34-59.34N,139-41.71E,163,16.837,34.4965
1208,2020/4/2,20:07,34-58.96N,139-41.84E,163,16.775,34.5023
1209,2020/4/2,20:08,34-58.52N,139-42.00E,163,16.79,34.5019
1210,2020/4/2,20:09,34-58.13N,139-42.16E,160,16.844,34.503
1211,2020/4/2,20:10,34-57.76N,139-42.32E,160,16.936,34.5055
1212,2020/4/2,20:11,34-57.38N,139-42.48E,159,17.159,34.507
1213,2020/4/2,20:12,34-57.00N,139-42.65E,159,17.375,34.525
1214,2020/4/2,20:13,34-56.63N,139-42.82E,159,17.538,34.5379
1215,2020/4/2,20:14,34-56.26N,139-43.00E,159,17.703,34.5443
1216,2020/4/2,20:15,34-55.89N,139-43.16E,159,17.751,34.5503
1217,2020/4/2,20:16,34-55.51N,139-43.34E,159,17.729,34.5526
1218,2020/4/2,20:17,34-55.14N,139-43.51E,158,17.691,34.5496
1219,2020/4/2,20:18,34-54.77N,139-43.69E,158,17.668,34.5456
1220,2020/4/2,20:19,34-54.43N,139-43.87E,155,17.593,34.5456
1221,2020/4/2,20:20,34-54.06N,139-44.08E,153,17.578,34.5438
1222,2020/4/2,20:21,34-53.69N,139-44.34E,150,17.559,34.5421
1223,2020/4/2,20:22,34-53.34N,139-44.58E,149,17.566,34.5427
1224,2020/4/2,20:23,34-53.02N,139-44.82E,147,17.612,34.5417
1225,2020/4/2,20:24,34-52.71N,139-45.11E,140,17.752,34.5431
1226,2020/4/2,20:25,34-52.47N,139-45.41E,133,17.842,34.5491
1227,2020/4/2,20:26,34-52.23N,139-45.79E,124,17.889,34.5508
1228,2020/4/2,20:27,34-52.04N,139-46.21E,114,17.913,34.5529
1229,2020/4/2,20:28,34-51.89N,139-46.70E,108,17.895,34.5536
1230,2020/4/2,20:29,34-51.77N,139-47.17E,107,17.853,34.5549
1231,2020/4/2,20:30,34-51.66N,139-47.60E,105,17.563,34.5567
1232,2020/4/2,20:31,34-51.58N,139-48.06E,100,16.376,34.549
1233,2020/4/2,20:32,34-51.53N,139-48.54E,98,16.091,34.4681
1234,2020/4/2,20:33,34-51.48N,139-48.98E,97,16.15,34.45
1235,2020/4/2,20:34,34-51.42N,139-49.43E,99,16.104,34.4557
1236,2020/4/2,20:35,34-51.36N,139-49.88E,98,15.962,34.457
1237,2020/4/2,20:36,34-51.30N,139-50.34E,97,15.98,34.4303
1238,2020/4/2,20:37,34-51.24N,139-50.77E,99,15.967,34.4109
1239,2020/4/2,20:38,34-51.16N,139-51.23E,100,15.98,34.3903
1240,2020/4/2,20:39,34-51.09N,139-51.67E,101,15.949,34.3769
1241,2020/4/2,20:40,34-51.01N,139-52.12E,101,15.929,34.3768
1242,2020/4/2,20:41,34-50.93N,139-52.58E,102,15.934,34.3773
1243,2020/4/2,20:42,34-50.83N,139-53.04E,106,15.885,34.3849
1244,2020/4/2,20:43,34-50.71N,139-53.40E,112,15.849,34.3882
1245,2020/4/2,20:44,34-50.55N,139-53.80E,115,15.846,34.3835
1246,2020/4/2,20:45,34-50.38N,139-54.21E,116,15.853,34.3803
1247,2020/4/2,20:46,34-50.17N,139-54.68E,115,15.847,34.3721
1248,2020/4/2,20:47,34-50.05N,139-55.09E,111,15.858,34.3696
1249,2020/4/2,20:48,34-49.93N,139-55.53E,106,15.848,34.3775
1250,2020/4/2,20:49,34-49.85N,139-55.95E,101,15.871,34.3849
1251,2020/4/2,20:50,34-49.82N,139-56.39E,93,16.157,34.392
1252,2020/4/2,20:51,34-49.85N,139-56.85E,83,16.426,34.4219
1253,2020/4/2,20:52,34-49.93N,139-57.27E,76,16.76,34.438
1254,2020/4/2,20:53,34-50.06N,139-57.67E,68,16.821,34.4703
1255,2020/4/2,20:54,34-50.23N,139-58.09E,62,16.919,34.4877
1256,2020/4/2,20:55,34-50.40N,139-58.45E,58,16.947,34.4928
1257,2020/4/2,20:56,34-50.61N,139-58.82E,56,17.105,34.4994
1258,2020/4/2,20:57,34-50.82N,139-59.20E,55,17.253,34.5152
1259,2020/4/2,20:58,34-51.03N,139-59.57E,55,17.286,34.5315
1260,2020/4/2,20:59,34-51.24N,139-59.93E,54,17.216,34.5378
1261,2020/4/2,21:00,34-51.47N,140-00.30E,54,17.144,34.5321
1262,2020/4/2,21:01,34-51.67N,140-00.65E,54,17.121,34.5284
1263,2020/4/2,21:02,34-51.89N,140-01.02E,53,17.084,34.5244
1264,2020/4/2,21:03,34-52.10N,140-01.37E,54,17.045,34.5236
1265,2020/4/2,21:04,34-52.32N,140-01.74E,53,17.085,34.5199
1266,2020/4/2,21:05,34-52.50N,140-02.05E,53,17.096,34.5211
1267,2020/4/2,21:06,34-52.72N,140-02.42E,54,17.064,34.5229
1268,2020/4/2,21:07,34-52.93N,140-02.77E,54,17.058,34.5219
1269,2020/4/2,21:08,34-53.15N,140-03.13E,53,17.141,34.5274
1270,2020/4/2,21:09,34-53.36N,140-03.49E,54,17.192,34.5347
1271,2020/4/2,21:10,34-53.57N,140-03.86E,54,17.213,34.5383
1272,2020/4/2,21:11,34-53.78N,140-04.21E,54,17.235,34.54
1273,2020/4/2,21:12,34-54.01N,140-04.59E,54,17.232,34.5404
1274,2020/4/2,21:13,34-54.21N,140-04.93E,54,17.229,34.5405
1275,2020/4/2,21:14,34-54.42N,140-05.29E,54,17.325,34.5393
1276,2020/4/2,21:15,34-54.62N,140-05.64E,55,17.366,34.5431
1277,2020/4/2,21:16,34-54.83N,140-06.00E,55,17.358,34.5479
1278,2020/4/2,21:17,34-55.03N,140-06.38E,56,17.34,34.547
1279,2020/4/2,21:18,34-55.22N,140-06.73E,56,17.317,34.5477
1280,2020/4/2,21:19,34-55.42N,140-07.11E,56,17.339,34.5488
1281,2020/4/2,21:20,34-55.61N,140-07.45E,56,17.382,34.5528
1282,2020/4/2,21:21,34-55.79N,140-07.80E,56,17.409,34.5562
1283,2020/4/2,21:22,34-55.99N,140-08.17E,56,17.402,34.5597
1284,2020/4/2,21:23,34-56.18N,140-08.52E,56,17.419,34.5592
1285,2020/4/2,21:24,34-56.37N,140-08.88E,57,17.405,34.5604
1286,2020/4/2,21:25,34-56.57N,140-09.26E,57,17.4,34.5594
1287,2020/4/2,21:26,34-56.76N,140-09.61E,56,17.362,34.5598
1288,2020/4/2,21:27,34-56.96N,140-09.98E,56,17.33,34.5578
1289,2020/4/2,21:28,34-57.15N,140-10.33E,56,17.351,34.556
1290,2020/4/2,21:29,34-57.35N,140-10.69E,56,17.363,34.5567
1291,2020/4/2,21:30,34-57.56N,140-11.07E,56,17.352,34.5578
1292,2020/4/2,21:31,34-57.75N,140-11.42E,55,17.287,34.5557
1293,2020/4/2,21:32,34-57.95N,140-11.78E,56,17.249,34.5485
1294,2020/4/2,21:33,34-58.15N,140-12.15E,55,17.228,34.5405
1295,2020/4/2,21:34,34-58.34N,140-12.49E,56,17.212,34.5405
1296,2020/4/2,21:35,34-58.55N,140-12.85E,56,17.198,34.5394
1297,2020/4/2,21:36,34-58.74N,140-13.21E,56,17.199,34.5395
1298,2020/4/2,21:37,34-58.96N,140-13.58E,55,17.22,34.5395
1299,2020/4/2,21:38,34-59.16N,140-13.92E,52,17.234,34.54
1300,2020/4/2,21:39,34-59.39N,140-14.25E,51,17.214,34.5416
1301,2020/4/2,21:40,34-59.59N,140-14.56E,49,17.19,34.541
1302,2020/4/2,21:41,34-59.83N,140-14.91E,49,17.159,34.5395
1303,2020/4/2,21:42,35-00.05N,140-15.23E,49,17.139,34.5397
1304,2020/4/2,21:43,35-00.28N,140-15.56E,50,17.144,34.5397
1305,2020/4/2,21:44,35-00.51N,140-15.90E,50,17.147,34.5405
1306,2020/4/2,21:45,35-00.78N,140-16.27E,49,17.147,34.541
1307,2020/4/2,21:46,35-01.01N,140-16.61E,49,17.148,34.5411
1308,2020/4/2,21:47,35-01.21N,140-16.90E,49,17.162,34.5407
1309,2020/4/2,21:48,35-01.44N,140-17.22E,49,17.162,34.542
1310,2020/4/2,21:49,35-01.67N,140-17.55E,49,17.157,34.542
1311,2020/4/2,21:50,35-01.90N,140-17.89E,50,17.196,34.5418
1312,2020/4/2,21:51,35-02.13N,140-18.21E,49,17.232,34.5435
1313,2020/4/2,21:52,35-02.36N,140-18.55E,50,17.249,34.5454
1314,2020/4/2,21:53,35-02.59N,140-18.89E,50,17.266,34.5462
1315,2020/4/2,21:54,35-02.83N,140-19.23E,48,17.272,34.5463
1316,2020/4/2,21:55,35-03.11N,140-19.61E,48,17.27,34.5465
1317,2020/4/2,21:56,35-03.32N,140-19.89E,48,17.265,34.5466
1318,2020/4/2,21:57,35-03.57N,140-20.23E,47,17.254,34.5457
1319,2020/4/2,21:58,35-03.84N,140-20.56E,44,17.274,34.545
1320,2020/4/2,21:59,35-04.10N,140-20.86E,43,17.334,34.5449
1321,2020/4/2,22:00,35-04.37N,140-21.17E,43,17.355,34.5508
1322,2020/4/2,22:01,35-04.63N,140-21.49E,47,17.367,34.5532
1323,2020/4/2,22:02,35-04.87N,140-21.85E,51,17.525,34.5537
1324,2020/4/2,22:03,35-05.12N,140-22.23E,50,17.556,34.569
1325,2020/4/2,22:04,35-05.37N,140-22.57E,47,17.566,34.5744
1326,2020/4/2,22:05,35-05.61N,140-22.86E,44,17.57,34.5752
1327,2020/4/2,22:06,35-05.90N,140-23.19E,43,17.568,34.5747
1328,2020/4/2,22:07,35-06.21N,140-23.56E,44,17.591,34.5742
1329,2020/4/2,22:08,35-06.44N,140-23.83E,44,17.622,34.5746
1330,2020/4/2,22:09,35-06.70N,140-24.15E,43,17.644,34.5789
1331,2020/4/2,22:10,35-06.96N,140-24.46E,44,17.644,34.5808
1332,2020/4/2,22:11,35-07.25N,140-24.80E,44,17.636,34.5807
1333,2020/4/2,22:12,35-07.49N,140-25.09E,44,17.621,34.581
1334,2020/4/2,22:13,35-07.83N,140-25.51E,45,17.607,34.5811
1335,2020/4/2,22:14,35-08.09N,140-25.82E,45,17.604,34.581
1336,2020/4/2,22:15,35-08.30N,140-26.09E,45,17.61,34.5816
1337,2020/4/2,22:16,35-08.60N,140-26.43E,42,17.617,34.5823
1338,2020/4/2,22:17,35-08.89N,140-26.73E,40,17.615,34.5822
1339,2020/4/2,22:18,35-09.22N,140-27.08E,41,17.552,34.5838
1340,2020/4/2,22:19,35-09.48N,140-27.39E,46,17.496,34.5836
1341,2020/4/2,22:20,35-09.68N,140-27.70E,52,17.289,34.5838
1342,2020/4/2,22:21,35-09.92N,140-28.15E,58,16.928,34.5807
1343,2020/4/2,22:22,35-10.12N,140-28.58E,61,16.877,34.5629
1344,2020/4/2,22:23,35-10.29N,140-29.00E,63,16.827,34.5597
1345,2020/4/2,22:24,35-10.47N,140-29.45E,64,16.805,34.5574
1346,2020/4/2,22:25,35-10.58N,140-29.73E,64,16.789,34.5566
1347,2020/4/2,22:26,35-10.76N,140-30.17E,63,16.791,34.5556
1348,2020/4/2,22:27,35-10.94N,140-30.57E,62,16.747,34.5567
1349,2020/4/2,22:28,35-11.12N,140-30.99E,61,16.706,34.5555
1350,2020/4/2,22:29,35-11.30N,140-31.38E,60,16.664,34.5515
1351,2020/4/2,22:30,35-11.54N,140-31.87E,59,16.615,34.5483
1352,2020/4/2,22:31,35-11.72N,140-32.26E,60,16.485,34.5444
1353,2020/4/2,22:32,35-11.93N,140-32.70E,60,16.48,34.5377
1354,2020/4/2,22:33,35-12.11N,140-33.07E,60,16.54,34.5342
1355,2020/4/2,22:34,35-12.30N,140-33.49E,59,16.554,34.5332
1356,2020/4/2,22:35,35-12.50N,140-33.85E,55,16.565,34.5298
1357,2020/4/2,22:36,35-12.74N,140-34.23E,50,16.537,34.5288
1358,2020/4/2,22:37,35-12.99N,140-34.57E,46,16.494,34.5276
1359,2020/4/2,22:38,35-13.28N,140-34.90E,41,16.311,34.5223
1360,2020/4/2,22:39,35-13.61N,140-35.22E,37,16.194,34.5088
1361,2020/4/2,22:40,35-13.83N,140-35.43E,35,16.21,34.4994
1362,2020/4/2,22:41,35-14.12N,140-35.67E,34,16.207,34.4951
1363,2020/4/2,22:42,35-14.47N,140-35.96E,33,16.352,34.4917
1364,2020/4/2,22:43,35-14.72N,140-36.16E,33,16.406,34.493
1365,2020/4/2,22:44,35-15.04N,140-36.40E,32,16.348,34.5015
1366,2020/4/2,22:45,35-15.36N,140-36.66E,32,16.292,34.4912
1367,2020/4/2,22:46,35-15.65N,140-36.88E,32,16.39,34.4641
1368,2020/4/2,22:47,35-16.03N,140-37.18E,32,16.38,34.4875
1369,2020/4/2,22:48,35-16.27N,140-37.36E,31,16.251,34.4962
1370,2020/4/2,22:49,35-16.59N,140-37.60E,31,16.209,34.4886
1371,2020/4/2,22:50,35-16.90N,140-37.84E,32,16.194,34.4639
1372,2020/4/2,22:51,35-17.21N,140-38.08E,32,16.253,34.4464
1373,2020/4/2,22:52,35-17.54N,140-38.33E,32,16.378,34.4422
1374,2020/4/2,22:53,35-17.86N,140-38.58E,32,16.382,34.4556
1375,2020/4/2,22:54,35-18.16N,140-38.80E,32,16.335,34.4662
1376,2020/4/2,22:55,35-18.46N,140-39.03E,29,16.266,34.4531
1377,2020/4/2,22:56,35-18.79N,140-39.24E,28,16.236,34.4453
1378,2020/4/2,22:57,35-19.08N,140-39.43E,27,16.221,34.4388
1379,2020/4/2,22:58,35-19.40N,140-39.63E,26,16.224,34.4466
1380,2020/4/2,22:59,35-19.76N,140-39.85E,26,16.233,34.4635
1381,2020/4/2,23:00,35-20.07N,140-40.03E,26,16.289,34.4787
1382,2020/4/2,23:01,35-20.39N,140-40.25E,29,16.323,34.4895
1383,2020/4/2,23:02,35-20.71N,140-40.46E,28,16.33,34.4964
1384,2020/4/2,23:03,35-21.03N,140-40.68E,28,16.297,34.4969
1385,2020/4/2,23:04,35-21.36N,140-40.90E,29,16.277,34.4907
1386,2020/4/2,23:05,35-21.66N,140-41.12E,30,16.128,34.468
1387,2020/4/2,23:06,35-22.02N,140-41.38E,31,16.072,34.4327
1388,2020/4/2,23:07,35-22.31N,140-41.60E,31,16.014,34.4043
1389,2020/4/2,23:08,35-22.60N,140-41.82E,32,15.989,34.3932
1390,2020/4/2,23:09,35-22.91N,140-42.07E,33,15.972,34.3794
1391,2020/4/2,23:10,35-23.23N,140-42.32E,32,15.86,34.3789
1392,2020/4/2,23:11,35-23.56N,140-42.58E,32,15.833,34.3687
1393,2020/4/2,23:12,35-23.83N,140-42.79E,33,15.866,34.3504
1394,2020/4/2,23:13,35-24.17N,140-43.07E,33,15.657,34.3628
1395,2020/4/2,23:14,35-24.47N,140-43.31E,33,15.51,34.3431
1396,2020/4/2,23:15,35-24.76N,140-43.55E,33,15.404,34.3091
1397,2020/4/2,23:16,35-25.06N,140-43.80E,34,15.453,34.2878
1398,2020/4/2,23:17,35-25.36N,140-44.04E,34,15.776,34.2635
1399,2020/4/2,23:18,35-25.80N,140-44.40E,33,16.015,34.3905
1400,2020/4/2,23:19,35-25.97N,140-44.54E,33,16.079,34.4291
1401,2020/4/2,23:20,35-26.27N,140-44.77E,32,16.145,34.4578
1402,2020/4/2,23:21,35-26.60N,140-45.03E,33,16.224,34.4707
1403,2020/4/2,23:22,35-26.93N,140-45.30E,33,16.319,34.4781
1404,2020/4/2,23:23,35-27.29N,140-45.61E,35,16.343,34.4844
1405,2020/4/2,23:24,35-27.55N,140-45.84E,36,16.329,34.4871
1406,2020/4/2,23:25,35-27.82N,140-46.09E,37,16.319,34.4881
1407,2020/4/2,23:26,35-28.10N,140-46.34E,37,16.308,34.4894
1408,2020/4/2,23:27,35-28.40N,140-46.62E,36,16.294,34.4892
1409,2020/4/2,23:28,35-28.69N,140-46.89E,37,16.279,34.4893
1410,2020/4/2,23:29,35-29.03N,140-47.20E,36,16.261,34.4904
1411,2020/4/2,23:30,35-29.32N,140-47.47E,37,16.247,34.4911
1412,2020/4/2,23:31,35-29.62N,140-47.75E,36,16.23,34.4918
1413,2020/4/2,23:32,35-29.97N,140-48.07E,36,16.222,34.4913
1414,2020/4/2,23:33,35-30.22N,140-48.30E,36,16.217,34.4924
1415,2020/4/2,23:34,35-30.52N,140-48.58E,37,16.21,34.4929
1416,2020/4/2,23:35,35-30.83N,140-48.86E,37,16.205,34.4927
1417,2020/4/2,23:36,35-31.15N,140-49.15E,36,16.2,34.492
1418,2020/4/2,23:37,35-31.46N,140-49.44E,36,---,34.4923
1419,2020/4/2,23:38,35-31.75N,140-49.70E,36,16.143,34.4919
1420,2020/4/2,23:39,35-32.08N,140-50.01E,37,16.097,34.4894
1421,2020/4/2,23:40,35-32.50N,140-50.41E,36,16.044,34.4843
1422,2020/4/2,23:41,35-32.73N,140-50.60E,34,15.289,34.4842
1423,2020/4/2,23:42,35-33.02N,140-50.84E,34,14.082,34.4646
1424,2020/4/2,23:43,35-33.36N,140-51.13E,34,13.765,34.1823
1425,2020/4/2,23:44,35-33.59N,140-51.32E,34,13.633,34.0244
1426,2020/4/2,23:45,35-33.91N,140-51.59E,34,13.522,33.9141
1427,2020/4/2,23:46,35-34.26N,140-51.88E,33,13.383,33.8519
1428,2020/4/2,23:47,35-34.60N,140-52.16E,34,13.291,33.7866
1429,2020/4/2,23:48,35-34.83N,140-52.35E,34,13.258,33.7511
1430,2020/4/2,23:49,35-35.15N,140-52.61E,34,13.305,33.7087
1431,2020/4/2,23:50,35-35.45N,140-52.86E,34,13.289,33.6961
1432,2020/4/2,23:51,35-35.75N,140-53.12E,34,13.293,33.704
1433,2020/4/2,23:52,35-36.11N,140-53.41E,34,13.313,33.6909
1434,2020/4/2,23:53,35-36.37N,140-53.62E,33,13.346,33.6855
1435,2020/4/2,23:54,35-36.68N,140-53.87E,32,13.297,33.6629
1436,2020/4/2,23:55,35-36.99N,140-54.11E,31,13.286,33.6099
1437,2020/4/2,23:56,35-37.34N,140-54.37E,31,13.365,33.4401
1438,2020/4/2,23:57,35-37.65N,140-54.61E,32,13.4,33.1782
1439,2020/4/2,23:58,35-37.92N,140-54.81E,31,13.432,33.0339
1440,2020/4/2,23:59,35-38.25N,140-55.07E,31,13.463,33.0037
1,2020/4/3,0:00,35-38.55N,140-55.30E,31,13.508,33.0232
2,2020/4/3,0:01,35-38.85N,140-55.52E,31,13.512,33.0689
3,2020/4/3,0:02,35-39.16N,140-55.77E,32,---,33.0921
4,2020/4/3,0:03,35-39.47N,140-56.01E,32,13.537,32.967
5,2020/4/3,0:04,35-39.79N,140-56.25E,32,13.628,33.0293
6,2020/4/3,0:05,35-40.17N,140-56.55E,32,13.57,33.268
7,2020/4/3,0:06,35-40.46N,140-56.77E,30,13.601,33.3296
8,2020/4/3,0:07,35-40.73N,140-56.96E,29,13.628,33.4289
9,2020/4/3,0:08,35-41.07N,140-57.20E,29,13.727,33.5404
10,2020/4/3,0:09,35-41.44N,140-57.45E,29,13.683,33.6869
11,2020/4/3,0:10,35-41.70N,140-57.63E,27,13.733,33.7152
12,2020/4/3,0:11,35-42.01N,140-57.81E,25,13.761,33.7276
13,2020/4/3,0:12,35-42.46N,140-58.06E,24,13.784,33.829
14,2020/4/3,0:13,35-42.69N,140-58.19E,24,13.773,33.8502
15,2020/4/3,0:14,35-43.21N,140-58.48E,24,13.702,33.8014
16,2020/4/3,0:15,35-43.39N,140-58.58E,24,13.731,33.7629
17,2020/4/3,0:16,35-43.77N,140-58.80E,24,13.856,33.7725
18,2020/4/3,0:17,35-44.01N,140-58.93E,24,13.821,33.8438